Location: Putah Creek Observatory
(38.7021°N, 122.3865°W)
Time: 17:11:29
(UTC-08:00)

Cosmos 2322 Rocket - Pass Details

Date: 27 May 2018
Orbit: 832 x 851 km, 71.0° (Epoch: 12 December)

Event Time Altitude Azimuth Distance (km) Brightness Sun altitude
Rises 22:15:44 0° 325° (NW) 3,385 7.0 -17.7°
Reaches altitude 10° 22:18:30 10° 313° (NW) 2,445 5.9 -18.1°
Maximum altitude 22:23:06 27° 258° (WSW) 1,549 3.8 -18.7°
Drops below altitude 10° 22:27:42 10° 202° (SSW) 2,432 4.3 -19.2°
Enters shadow 22:27:44 10° 202° (SSW) 2,441 4.3 -19.2°
